Regional Weather Roundup
Issued by NWS Cleveland, OH

Home | Current Version | Previous Version | Graphics & Text | Print | Product List | Glossary On
Versions: 1 2 3 4 5 6 7 8 9 10 11 12 13 14 15 16 17 18 19 20 21 22 23 24 25 26 27 28 29 30 31 32 33 34 35 36 37 38 39 40 41 42 43 44 45 46 47 48 49 50
000
ASUS41 KCLE 012010
RWRCLE
OHIO REGIONAL WEATHER ROUNDUP
NATIONAL WEATHER SERVICE WILMINGTON, OH
400 PM EDT WED JUL 01 2015

NOTE: "FAIR" INDICATES FEW OR NO CLOUDS BELOW 12,000 FEET WITH NO
SIGNIFICANT WEATHER AND/OR OBSTRUCTIONS TO VISIBILITY.

OHZ001>008-015>018-024>027-034-035-043-044-012100-
   NORTHWEST OHIO

CITY           SKY/WX    TMP DP  RH WIND       PRES   REMARKS
DEFIANCE       MOSUNNY   75  57  53 NW10G17   29.91F
FINDLAY        MOSUNNY   76  58  53 NW7       29.90F
TOLEDO EXPRESS PTSUNNY   74  57  55 W8        29.90F
TOLEDO EXEC    PTSUNNY   74  56  53 NW9       29.90F
LIMA           MOSUNNY   72  58  61 NW10      29.91F
$$

OHZ009>014-019>023-028>033-038-089-012100-
   NORTHEAST OHIO

CITY           SKY/WX    TMP DP  RH WIND       PRES   REMARKS
CLE-HOPKINS    PTSUNNY   72  60  66 NW8       29.92S
CLE-LAKEFRONT  SUNNY     71  62  73 NW5       29.90F
CUY CO. ARPT   MOSUNNY   72  57  60 NW12      29.91F
LORAIN-ELYRIA  PTSUNNY   71  60  68 VRB3      29.91F
ASHTABULA      MOSUNNY   70  59  68 W5        29.91F
AKRON-CANTON   PTSUNNY   74  58  57 W9        29.90F
WOOSTER        MOSUNNY   74  60  61 VRB6      29.92S
MANSFIELD      MOSUNNY   72  58  61 SW9       29.93S
YOUNGSTOWN     PTSUNNY   74  60  61 NW8       29.90F
$$

OHZ042-051>053-060>062-070>072-077>081-012100-
  SOUTHWEST OHIO

CITY           SKY/WX    TMP DP  RH WIND       PRES   REMARKS
CINC-COVINGTON PTSUNNY   77  61  57 SW6       29.93S
CINC-LUNKEN    MOSUNNY   80  60  50 VRB6      29.91F
HAMILTON       MOSUNNY   79  61  53 CALM      29.93S
DAYTON         MOSUNNY   78  59  51 NW7       29.93F
WRIGHT-PAT AFB MOSUNNY   77  57  49 NW7       29.92S
DAYTON GENERAL SUNNY     77  58  51 W8        29.92F
WILMINGTON     MOSUNNY   77  55  46 NW5       29.93S
$$

OHZ036-037-039>041-045>050-054>059-063>069-073>076-082>088-012100-
  CENTRAL AND SOUTHEAST OHIO

CITY           SKY/WX    TMP DP  RH WIND       PRES   REMARKS
COLUMBUS       PTSUNNY   76  59  55 NW7       29.91F
OSU AIRPORT    PTSUNNY   75  59  57 NW8       29.91F
BOLTON FIELD   PTSUNNY   75  61  60 NW7       29.92F
RICKENBACK AFB PTSUNNY   78  58  51 W8        29.91F
NEWARK         PTSUNNY   79  59  50 NW9       29.91F
MARION         PTSUNNY   73  57  57 NW10      29.92F
LANCASTER      MOSUNNY   78  60  53 VRB6      29.92F
ZANESVILLE     SUNNY     76  56  49 W10       29.92S
NEW PHILLY     PTSUNNY   75  61  61 CALM      29.92S
$$


USA.gov is the U.S. government's official web portal to all federal, state and local government web resources and services.